| time (UTC) | temp C | wind direction | speed KPH | gust KPH | rain 1hr cm | rain 24hr cm | rain mn cm | humidity % | barometer mb |
| 20260502123042 | 5 | 225 | 0.0 | 0.0 | 0.00 | 0.00 | 0.00 | 55 | 1018.1 |
| 20260502121541 | 5 | 225 | 0.0 | 0.0 | 0.00 | 0.00 | 0.00 | 55 | 1018.0 |
| 20260502114521 | 5 | 225 | 0.0 | 0.0 | 0.00 | 0.00 | 0.00 | 54 | 1018.0 |
| 20260502113009 | 6 | 225 | 0.0 | 0.0 | 0.00 | 0.00 | 0.00 | 54 | 1018.1 |
| 20260502111606 | 6 | 225 | 0.0 | 0.0 | 0.00 | 0.00 | 0.00 | 54 | 1018.0 |
| 20260502110044 | 6 | 225 | 0.0 | 0.0 | 0.00 | 0.00 | 0.00 | 53 | 1017.9 |
| 20260502104539 | 6 | 225 | 0.0 | 0.0 | 0.00 | 0.00 | 0.00 | 53 | 1017.9 |
| 20260502103029 | 6 | 225 | 0.0 | 0.0 | 0.00 | 0.00 | 0.00 | 51 | 1018.0 |
| 20260502101515 | 7 | 225 | 0.0 | 0.0 | 0.00 | 0.00 | 0.00 | 49 | 1017.7 |
| 20260502091516 | 6 | 225 | 0.0 | 0.0 | 0.00 | 0.00 | 0.00 | 52 | 1017.6 |
| 20260502071520 | 7 | 228 | 0.0 | 0.0 | 0.00 | 0.00 | 0.00 | 54 | 1017.9 |
| 20260502064556 | 7 | 228 | 0.0 | 0.0 | 0.00 | 0.00 | 0.00 | 54 | 1017.6 |
| 20260502063032 | 7 | 228 | 0.0 | 0.0 | 0.00 | 0.00 | 0.00 | 53 | 1017.6 |
| 20260502061614 | 8 | 228 | 0.0 | 0.0 | 0.00 | 0.00 | 0.00 | 53 | 1017.5 |
| 20260502060050 | 8 | 228 | 0.0 | 0.0 | 0.00 | 0.00 | 0.00 | 53 | 1017.4 |
| 20260502054534 | 8 | 227 | 0.0 | 0.0 | 0.00 | 0.00 | 0.00 | 52 | 1017.4 |
| 20260502053015 | 8 | 228 | 0.0 | 0.0 | 0.00 | 0.00 | 0.00 | 54 | 1017.3 |
| 20260502051512 | 8 | 227 | 0.0 | 0.0 | 0.00 | 0.00 | 0.00 | 55 | 1017.3 |
| 20260502050047 | 8 | 227 | 0.0 | 0.0 | 0.00 | 0.00 | 0.00 | 54 | 1017.1 |
| 20260502044537 | 9 | 227 | 0.0 | 0.0 | 0.00 | 0.00 | 0.00 | 53 | 1017.0 |
| 20260502043104 | 9 | 227 | 0.0 | 0.0 | 0.00 | 0.00 | 0.00 | 52 | 1017.0 |
| 20260502041606 | 9 | 228 | 0.0 | 0.0 | 0.00 | 0.00 | 0.00 | 53 | 1017.0 |
| 20260502040054 | 10 | 227 | 0.0 | 0.0 | 0.00 | 0.00 | 0.00 | 50 | 1016.9 |
| 20260502034538 | 10 | 228 | 0.0 | 0.0 | 0.00 | 0.00 | 0.00 | 49 | 1016.7 |
| 20260502033019 | 11 | 228 | 0.0 | 0.0 | 0.00 | 0.00 | 0.00 | 46 | 1016.5 |
| 20260502031507 | 11 | 228 | 0.0 | 0.0 | 0.00 | 0.00 | 0.00 | 43 | 1016.4 |
| 20260502030111 | 12 | 227 | 0.0 | 0.0 | 0.00 | 0.00 | 0.00 | 43 | 1015.9 |
| 20260502024557 | 13 | 227 | 0.0 | 0.0 | 0.00 | 0.00 | 0.00 | 38 | 1016.0 |
| 20260502023038 | 15 | 228 | 0.0 | 0.0 | 0.00 | 0.00 | 0.00 | 37 | 1016.0 |
| 20260502021519 | 15 | 228 | 0.0 | 0.0 | 0.00 | 0.00 | 0.00 | 34 | 1015.8 |
| 20260502020113 | 16 | 323 | 0.0 | 0.0 | 0.00 | 0.00 | 0.00 | 32 | 1015.5 |
| 20260502014554 | 16 | 311 | 3.2 | 0.0 | 0.00 | 0.00 | 0.00 | 31 | 1015.3 |
| 20260502013037 | 17 | 276 | 1.6 | 0.0 | 0.00 | 0.00 | 0.00 | 30 | 1015.1 |
| 20260502011517 | 17 | 348 | 1.6 | 0.0 | 0.00 | 0.00 | 0.00 | 31 | 1015.1 |
| 20260502004542 | 17 | 15 | 3.2 | 0.0 | 0.00 | 0.00 | 0.00 | 30 | 1015.0 |
| 20260502003027 | 17 | 29 | 4.8 | 0.0 | 0.00 | 0.00 | 0.00 | 30 | 1015.0 |
| 20260502001528 | 17 | 307 | 4.8 | 0.0 | 0.00 | 0.00 | 0.00 | 30 | 1015.2 |
| 20260502000006 | 17 | 355 | 4.8 | 0.0 | 0.00 | 0.00 | 0.00 | 29 | 1015.4 |
| 20260501234557 | 18 | 21 | 4.8 | 0.0 | 0.00 | 0.00 | 0.00 | 29 | 1015.6 |
| 20260501233049 | 18 | 288 | 4.8 | 0.0 | 0.00 | 0.00 | 0.00 | 27 | 1015.6 |
| 20260501231553 | 18 | 346 | 3.2 | 0.0 | 0.00 | 0.00 | 0.00 | 27 | 1015.7 |
| 20260501230037 | 19 | 349 | 4.8 | 0.0 | 0.00 | 0.00 | 0.00 | 26 | 1015.8 |
| 20260501224517 | 19 | 337 | 3.2 | 0.0 | 0.00 | 0.00 | 0.00 | 25 | 1016.0 |
| 20260501223042 | 18 | 229 | 4.8 | 0.0 | 0.00 | 0.00 | 0.00 | 27 | 1016.1 |
| 20260501221532 | 19 | 225 | 3.2 | 0.0 | 0.00 | 0.00 | 0.00 | 25 | 1016.3 |
| 20260501220017 | 18 | 5 | 4.8 | 0.0 | 0.00 | 0.00 | 0.00 | 26 | 1016.5 |
| 20260501214555 | 18 | 269 | 4.8 | 0.0 | 0.00 | 0.00 | 0.00 | 24 | 1016.8 |
| 20260501213039 | 18 | 198 | 4.8 | 0.0 | 0.00 | 0.00 | 0.00 | 25 | 1017.0 |
| 20260501211512 | 17 | 248 | 4.8 | 0.0 | 0.00 | 0.00 | 0.00 | 26 | 1017.1 |
| 20260501210054 | 18 | 227 | 6.4 | 0.0 | 0.00 | 0.00 | 0.00 | 26 | 1017.0 |
| 20260501204527 | 17 | 225 | 4.8 | 0.0 | 0.00 | 0.00 | 0.00 | 27 | 1017.2 |
| 20260501203049 | 17 | 205 | 6.4 | 0.0 | 0.00 | 0.00 | 0.00 | 25 | 1017.2 |
| 20260501201546 | 17 | 360 | 3.2 | 0.0 | 0.00 | 0.00 | 0.00 | 25 | 1017.3 |
| 20260501200038 | 18 | 325 | 3.2 | 0.0 | 0.00 | 0.00 | 0.00 | 24 | 1017.4 |
| 20260501194532 | 17 | 213 | 4.8 | 0.0 | 0.00 | 0.00 | 0.00 | 24 | 1017.4 |
| 20260501193023 | 18 | 334 | 3.2 | 0.0 | 0.00 | 0.00 | 0.00 | 23 | 1017.4 |
| 20260501191518 | 17 | 243 | 3.2 | 0.0 | 0.00 | 0.00 | 0.00 | 25 | 1017.5 |
| 20260501190001 | 17 | 211 | 6.4 | 0.0 | 0.00 | 0.00 | 0.00 | 25 | 1017.5 |
| 20260501184555 | 17 | 360 | 3.2 | 0.0 | 0.00 | 0.00 | 0.00 | 26 | 1017.5 |
| 20260501183034 | 16 | 248 | 3.2 | 0.0 | 0.00 | 0.00 | 0.00 | 26 | 1017.8 |
| 20260501181525 | 16 | 355 | 4.8 | 0.0 | 0.00 | 0.00 | 0.00 | 27 | 1017.9 |
| 20260501180057 | 16 | 179 | 4.8 | 0.0 | 0.00 | 0.00 | 0.00 | 27 | 1018.0 |
| 20260501174538 | 15 | 317 | 3.2 | 0.0 | 0.00 | 0.00 | 0.00 | 27 | 1018.2 |
| 20260501173025 | 15 | 332 | 4.8 | 0.0 | 0.00 | 0.00 | 0.00 | 29 | 1018.3 |
| 20260501171610 | 14 | 200 | 3.2 | 0.0 | 0.00 | 0.00 | 0.00 | 32 | 1018.3 |
| 20260501170047 | 13 | 200 | 3.2 | 0.0 | 0.00 | 0.00 | 0.00 | 36 | 1018.5 |
| 20260501164524 | 13 | 170 | 3.2 | 0.0 | 0.00 | 0.00 | 0.00 | 37 | 1018.5 |
| 20260501163100 | 13 | 194 | 1.6 | 0.0 | 0.00 | 0.00 | 0.00 | 37 | 1018.4 |
| 20260501161558 | 13 | 201 | 1.6 | 0.0 | 0.00 | 0.00 | 0.00 | 39 | 1018.7 |
| 20260501160033 | 12 | 200 | 0.0 | 0.0 | 0.00 | 0.00 | 0.00 | 41 | 1018.7 |
| 20260501154527 | 11 | 201 | 1.6 | 0.0 | 0.00 | 0.00 | 0.00 | 43 | 1018.6 |
| 20260501153002 | 10 | 95 | 1.6 | 0.0 | 0.00 | 0.00 | 0.00 | 45 | 1018.6 |
| 20260501151506 | 9 | 89 | 1.6 | 0.0 | 0.00 | 0.00 | 0.00 | 48 | 1018.5 |